When you browse on this site, cookies collect data to enhance your experience and personalize the content and advertising you see.
Visit our Privacy Policy to learn more. By continuing to use the site, you agree to this use of cookies and data.

Hourly Weather Bendery

Today, 5 August, Wednesday

Time Temperature Precipitation Wind Pressure Humidity
00:00 +19°C° 0 mm 1 mps 750 mmHg 62%
01:00 +19°C° 0 mm 1 mps 750 mmHg 64%
02:00 +17°C° 0 mm 0 mps 750 mmHg 66%
03:00 +17°C° 0 mm 0 mps 750 mmHg 67%
04:00 +19°C° 0 mm 1 mps 751 mmHg 68%
05:00 +18°C° 0 mm 1 mps 751 mmHg 69%
06:00 +20°C° 0 mm 2 mps 751 mmHg 62%
07:00 +22°C° 0 mm 3 mps 751 mmHg 54%
08:00 +25°C° 0 mm 3 mps 752 mmHg 46%
09:00 +27°C° 0 mm 4 mps 752 mmHg 40%
10:00 +29°C° 0 mm 4 mps 752 mmHg 35%
11:00 +32°C° 0 mm 4 mps 752 mmHg 29%
12:00 +32°C° 0 mm 4 mps 752 mmHg 27%
13:00 +33°C° 0 mm 4 mps 751 mmHg 25%
14:00 +34°C° 0 mm 4 mps 751 mmHg 23%
15:00 +34°C° 0 mm 4 mps 751 mmHg 23%
16:00 +34°C° 0 mm 3 mps 751 mmHg 24%
17:00 +32°C° 0 mm 2 mps 751 mmHg 24%
18:00 +30°C° 0 mm 2 mps 751 mmHg 29%
19:00 +28°C° 0 mm 2 mps 751 mmHg 33%
20:00 +26°C° 0 mm 1 mps 751 mmHg 37%
21:00 +25°C° 0 mm 1 mps 752 mmHg 40%
22:00 +24°C° 0 mm 1 mps 752 mmHg 42%
23:00 +23°C° 0 mm 1 mps 752 mmHg 45%

Tomorrow, 6 August, Thursday

Time Temperature Precipitation Wind Pressure Humidity
00:00 +23°C° 0 mm 1 mps 752 mmHg 46%
01:00 +22°C° 0 mm 1 mps 752 mmHg 47%
02:00 +22°C° 0 mm 1 mps 753 mmHg 49%
03:00 +20°C° 0 mm 2 mps 753 mmHg 50%
04:00 +20°C° 0 mm 2 mps 753 mmHg 52%
05:00 +19°C° 0 mm 3 mps 753 mmHg 53%
06:00 +22°C° 0 mm 3 mps 753 mmHg 50%
07:00 +25°C° 0 mm 3 mps 753 mmHg 47%
08:00 +27°C° 0 mm 4 mps 753 mmHg 44%
09:00 +29°C° 0 mm 4 mps 754 mmHg 40%
10:00 +30°C° 0 mm 5 mps 754 mmHg 36%
11:00 +33°C° 0 mm 5 mps 754 mmHg 31%
12:00 +34°C° 0 mm 5 mps 754 mmHg 29%
13:00 +34°C° 0 mm 5 mps 754 mmHg 27%
14:00 +35°C° 0 mm 5 mps 754 mmHg 25%
15:00 +35°C° 0 mm 5 mps 753 mmHg 25%
16:00 +34°C° 0 mm 5 mps 753 mmHg 26%
17:00 +34°C° 0 mm 5 mps 753 mmHg 27%
18:00 +32°C° 0 mm 5 mps 753 mmHg 33%
19:00 +29°C° 0 mm 4 mps 753 mmHg 38%
20:00 +27°C° 0 mm 4 mps 753 mmHg 44%
21:00 +27°C° 0 mm 4 mps 754 mmHg 46%
22:00 +26°C° 0 mm 5 mps 754 mmHg 48%
23:00 +25°C° 0 mm 5 mps 754 mmHg 51%

Day after tomorrow, 7 August, Friday

Time Temperature Precipitation Wind Pressure Humidity
00:00 +25°C° 0 mm 5 mps 754 mmHg 52%
01:00 +23°C° 0 mm 4 mps 754 mmHg 54%
02:00 +23°C° 0 mm 4 mps 754 mmHg 55%
03:00 +22°C° 0 mm 4 mps 754 mmHg 57%
04:00 +22°C° 0 mm 4 mps 754 mmHg 59%
05:00 +22°C° 0 mm 4 mps 754 mmHg 60%
06:00 +23°C° 0 mm 5 mps 754 mmHg 57%
07:00 +26°C° 0 mm 5 mps 755 mmHg 54%
08:00 +28°C° 0 mm 5 mps 755 mmHg 50%
09:00 +30°C° 0 mm 6 mps 755 mmHg 45%
10:00 +33°C° 0 mm 6 mps 755 mmHg 40%
11:00 +35°C° 0 mm 6 mps 755 mmHg 35%
12:00 +35°C° 0 mm 6 mps 755 mmHg 33%
13:00 +35°C° 0 mm 6 mps 754 mmHg 31%
14:00 +36°C° 0 mm 6 mps 754 mmHg 29%
15:00 +35°C° 0 mm 6 mps 754 mmHg 29%
16:00 +35°C° 0 mm 6 mps 753 mmHg 30%
17:00 +35°C° 0 mm 6 mps 753 mmHg 30%
18:00 +33°C° 0 mm 5 mps 753 mmHg 36%
19:00 +30°C° 0 mm 5 mps 753 mmHg 42%
20:00 +28°C° 0 mm 4 mps 753 mmHg 47%
21:00 +27°C° 0 mm 5 mps 753 mmHg 52%
22:00 +27°C° 0 mm 5 mps 753 mmHg 58%
23:00 +26°C° 0 mm 5 mps 753 mmHg 63%

8 August, Saturday

Time Temperature Precipitation Wind Pressure Humidity
00:00 +25°C° 0 mm 5 mps 753 mmHg 64%
01:00 +25°C° 0 mm 5 mps 753 mmHg 66%
02:00 +23°C° 0 mm 5 mps 753 mmHg 67%
03:00 +22°C° 0 mm 5 mps 753 mmHg 70%
04:00 +21°C° 0 mm 5 mps 753 mmHg 73%
05:00 +21°C° 0 mm 4 mps 753 mmHg 76%
06:00 +22°C° 0 mm 5 mps 753 mmHg 72%
07:00 +23°C° 0 mm 5 mps 753 mmHg 69%
08:00 +26°C° 0 mm 6 mps 753 mmHg 65%
09:00 +27°C° 0 mm 6 mps 753 mmHg 59%
10:00 +29°C° 0 mm 6 mps 753 mmHg 53%
11:00 +32°C° 0 mm 6 mps 753 mmHg 48%
12:00 +32°C° 0 mm 6 mps 753 mmHg 44%
13:00 +33°C° 0 mm 6 mps 753 mmHg 41%
14:00 +33°C° 0 mm 6 mps 752 mmHg 37%
15:00 +33°C° 0 mm 6 mps 752 mmHg 37%
16:00 +32°C° 0 mm 7 mps 752 mmHg 37%
17:00 +32°C° 0 mm 7 mps 752 mmHg 37%
18:00 +29°C° 0 mm 6 mps 752 mmHg 41%
19:00 +27°C° 0 mm 6 mps 752 mmHg 45%
20:00 +26°C° 0 mm 5 mps 752 mmHg 49%
21:00 +25°C° 0 mm 5 mps 752 mmHg 51%
22:00 +23°C° 0 mm 5 mps 752 mmHg 53%
23:00 +22°C° 0 mm 5 mps 752 mmHg 55%

9 August, Sunday

Time Temperature Precipitation Wind Pressure Humidity
00:00 +21°C° 0 mm 5 mps 752 mmHg 57%
01:00 +21°C° 0 mm 4 mps 752 mmHg 60%
02:00 +20°C° 0 mm 4 mps 752 mmHg 63%
03:00 +20°C° 0 mm 4 mps 752 mmHg 65%
04:00 +19°C° 0 mm 4 mps 751 mmHg 68%
05:00 +19°C° 0 mm 4 mps 751 mmHg 71%
06:00 +20°C° 0 mm 5 mps 752 mmHg 65%
07:00 +22°C° 0 mm 5 mps 752 mmHg 60%
08:00 +25°C° 0 mm 5 mps 752 mmHg 54%
09:00 +26°C° 0 mm 6 mps 752 mmHg 49%
10:00 +28°C° 0 mm 6 mps 752 mmHg 44%
11:00 +29°C° 0 mm 6 mps 752 mmHg 38%
12:00 +30°C° 0 mm 6 mps 751 mmHg 36%
13:00 +32°C° 0 mm 6 mps 751 mmHg 34%
14:00 +32°C° 0 mm 6 mps 751 mmHg 31%
15:00 +32°C° 0 mm 6 mps 751 mmHg 32%
16:00 +32°C° 0 mm 6 mps 750 mmHg 33%
17:00 +30°C° 0 mm 6 mps 750 mmHg 34%
18:00 +29°C° 0 mm 5 mps 750 mmHg 39%
19:00 +27°C° 0 mm 5 mps 750 mmHg 43%
20:00 +25°C° 0 mm 4 mps 751 mmHg 48%
21:00 +23°C° 0 mm 4 mps 751 mmHg 50%
22:00 +22°C° 0 mm 4 mps 751 mmHg 52%
23:00 +21°C° 0 mm 4 mps 751 mmHg 55%

10 August, Monday

Time Temperature Precipitation Wind Pressure Humidity
00:00 +21°C° 0 mm 4 mps 751 mmHg 57%
01:00 +20°C° 0 mm 3 mps 751 mmHg 59%
02:00 +19°C° 0 mm 3 mps 751 mmHg 62%
03:00 +19°C° 0 mm 3 mps 751 mmHg 64%
04:00 +18°C° 0 mm 3 mps 751 mmHg 66%
05:00 +18°C° 0 mm 3 mps 751 mmHg 68%
06:00 +20°C° 0 mm 3 mps 751 mmHg 61%
07:00 +22°C° 0 mm 3 mps 751 mmHg 53%
08:00 +25°C° 0 mm 3 mps 752 mmHg 45%
09:00 +26°C° 0 mm 3 mps 752 mmHg 41%
10:00 +28°C° 0 mm 3 mps 752 mmHg 36%
11:00 +30°C° 0 mm 3 mps 752 mmHg 31%
12:00 +30°C° 0 mm 4 mps 751 mmHg 31%
13:00 +30°C° 0 mm 4 mps 751 mmHg 31%
14:00 +30°C° 0 mm 4 mps 751 mmHg 31%
15:00 +29°C° 0 mm 4 mps 751 mmHg 31%
16:00 +29°C° 0 mm 4 mps 751 mmHg 31%
17:00 +29°C° 0 mm 3 mps 751 mmHg 31%
18:00 +28°C° 0 mm 3 mps 751 mmHg 35%
19:00 +26°C° 0 mm 3 mps 751 mmHg 39%
20:00 +24°C° 0 mm 3 mps 751 mmHg 43%
21:00 +24°C° 0 mm 3 mps 751 mmHg 47%
22:00 +22°C° 0 mm 3 mps 751 mmHg 51%
23:00 +21°C° 0 mm 3 mps 752 mmHg 55%
Show more